Tracking 23762 objects as of 22-Oct-2021
HD Live streaming from Space Station
objects crossing your sky now

CZ-3C DEB

Track CZ-3C DEB now!


NORAD ID: 42477
Int'l Code: 2012-008AM
Perigee: 401.4 km
Apogee: 33,047.9 km
Inclination: 20.2 °
Period: 582.2 minutes
Semi major axis: 23095 km
RCS: Unknown
Launch date: February 24, 2012
Source: People's Republic of China (PRC)
Launch site: Xichang Space Center, China (XSC)

Note: This is SATELLITE DEBRIS
aabbcc
Your satellite tracking list
Your tracking list is empty




NASA's NSSDC Master Catalog

Two Line Element Set (TLE):
1 42477U 12008AM  21294.52428578  .00001656  00000-0  37894-2 0  9995
2 42477  20.1908  52.4052 7067667 237.8541  34.9393  2.47347820 62177
Source of the keplerian elements: AFSPC